Regional Weather Roundup
Issued by NWS Green Bay, WI

Home | Current Version | Previous Version | Text Only | Print | Product List | Glossary On
Versions: 1 2 3 4 5 6 7 8 9 10 11 12 13 14 15 16 17 18 19 20 21 22 23 24 25 26 27 28 29 30 31 32 33 34 35 36 37 38 39 40 41 42 43 44 45 46 47 48 49 50
000
ASUS43 KGRB 301111
RWRGRB

NORTH-CENTRAL AND NORTHEAST WISCONSIN REGIONAL WEATHER ROUNDUP
NATIONAL WEATHER SERVICE GREEN BAY WI
600 AM CDT SAT JUL 30 2016

WIZ005-009-010>012-018-019-301200-
NORTH CENTRAL WISCONSIN

CITY           SKY/WX    TMP DP  RH WIND       PRES   REMARKS
IRONWOOD       MOCLDY    61  57  88 S6        30.06S
MANITOWISH WTR PTCLDY    52  52 100 CALM      30.10R
ARBOR VITAE    MOCLDY    57  55  95 CALM      30.10R
EAGLE RIVER    PTCLDY    50  50 100 CALM      30.10S
LAND O LAKES   CLEAR     50  49  99 CALM      30.11S
RHINELANDER    CLEAR     53  50  89 CALM      30.10S
PHILLIPS       CLEAR     54  54 100 CALM      30.09R
ANTIGO         PTCLDY    51  51  98 CALM      30.08S
TOMAHAWK       FOG       47  46  97 CALM      30.09S VSB 1/4
MERRILL        PTCLDY    50  50 100 CALM      30.09R
$$

WIZ013-073-301200-
NORTHEAST WISCONSIN

CITY           SKY/WX    TMP DP  RH WIND       PRES   REMARKS
IRON MOUNTAIN  PTCLDY    53  50  89 NW5       30.09R
MARINETTE      CLEAR    N/A N/A N/A NW3       30.07
OCONTO         CLEAR    N/A N/A N/A N3        30.05R
$$

WIZ017-030-035>037-045-301200-
CENTRAL WISCONSIN

CITY           SKY/WX    TMP DP  RH WIND       PRES   REMARKS
MEDFORD        MOCLDY    55  55 100 CALM      30.08S
WAUSAU         MOCLDY    59  53  80 VRB3      30.05S
MOSINEE        MOCLDY    59  55  88 NE6       30.07R
MARSHFIELD     CLOUDY    61  55  81 NE6       30.05S
WISC RAPIDS    CLOUDY    63  55  75 NE6       30.05S
STEVENS POINT  CLOUDY    58  56  90 NE7       30.05S
WAUPACA        MOCLDY    64  61  90 CALM      30.04R
SHAWANO        CLOUDY    61  57  84 NE8       30.06S
CLINTONVILLE   CLOUDY    61  55  82 NE5       30.04S
WAUTOMA        CLOUDY    63  59  87 N5        30.03
$$

WIZ038-039-048-051-301200-
FOX VALLEY

CITY           SKY/WX    TMP DP  RH WIND       PRES   REMARKS
NWS GREEN BAY  CLEAR     59  59 100 N8        30.03S
APPLETON       NOT AVBL
OSHKOSH        CLOUDY    67  61  81 NE5       30.01S
FOND DU LAC    CLOUDY    67  62  84 NE5       30.01S
$$

WIZ022-050-052-301200-
EAST CENTRAL WISCONSIN

CITY           SKY/WX    TMP DP  RH WIND       PRES   REMARKS
EPHRAIM        FAIR      61  56  83 CALM      30.05S
WASHINGTON ISL NOT AVBL
STURGEON BAY   CLEAR     64  58  80 E5        30.06R
MANITOWOC      MOCLDY    62  59  90 N6        30.03R
SHEBOYGAN      CLEAR     61  58  90 CALM      30.02R
$$

LMZ563-521-522-541>543-301200-
LAKESHORE

STATION/POSITION TIME  TEMP    WIND        PRES    VSBY  WAVE
                       AIR SEA DIR/SP/G                  HT/PER
                 (UTC) (F)     (DEG/KT/KT) (MB)    (MI)  (FT/S)
SHEBOYGAN LKSHOR 1100   67      20/  4/  5 1016.5R
KEWAUNEE LKSHORE 1000   66      80/  3/  5 1016.2S
ALGOMA MARINA    1043           80/  9/ 10   N/A
NORTHPORT PIER   1000   69      90/  9/ 10 1017.6R
N MID LAKE BUOY  1050   69 69   70/ 10/ 12 1017.3R         1/ 3
S GREEN BAY BUOY 1030   68 70   50/ 10/ 12 1016.7
SISTER BAY LKSHO 1021   63        CALM       N/A
CHAMBERS ISLAND  1000   69      80/  5/  8 1017.6R
MENOMINEE LKSHOR 1000   70      80/  9/ 11 1016.6R
$$




USA.gov is the U.S. government's official web portal to all federal, state and local government web resources and services.